Regional Weather Roundup
Issued by NWS

Home | Current Version | Previous Version | Text Only | Print | Product List | Glossary Off
Versions: 1 2 3 4 5 6 7 8 9 10 11 12 13 14 15 16 17 18 19 20 21 22 23 24 25 26 27 28 29 30 31 32 33 34 35 36 37 38 39 40 41 42 43 44 45 46 47 48 49 50

000
ASUS43 KDTX 300010
RWRMI
MICHIGAN HOURLY REGIONAL WEATHER ROUNDUP
NATIONAL WEATHER SERVICE DETROIT/PONTIAC MI
800 PM EDT WED OCT 29 2014

NOTE: "FAIR" INDICATES FEW OR NO CLOUDS BELOW 12,000 FEET WITH NO
SIGNIFICANT WEATHER AND/OR OBSTRUCTION TO VISIBILITY.

MIZ047>049-052>055-059>063-066>070-074>076-081>083-300100-
SOUTHEAST LOWER MICHIGAN

CITY           SKY/WX    TMP DP  RH WIND       PRES   REMARKS
ADRIAN         CLOUDY    43  37  79 W8        30.08R
6HR MIN TEMP:  43; 6HR MAX TEMP:  47; 6HR PCP: TRACE;

ALMA           PTCLDY    43  36  77 W8        30.07R
ANN ARBOR      MOCLDY    40  33  76 W7        30.06R
BAD AXE        CLOUDY    46  38  74 NW10G16   30.01R
6HR MIN TEMP:  46; 6HR MAX TEMP:  48;

CARO           CLOUDY    45  37  71 W3        30.02R
DETROIT CITY   CLOUDY    49  35  58 W6        30.05R
6HR MIN TEMP:  49; 6HR MAX TEMP:  52;

DETROIT        MOCLDY    46  35  65 W8        30.06R
6HR MIN TEMP:  46; 6HR MAX TEMP:  49;

FLINT          CLOUDY    47  36  65 W12       30.05R
6HR MIN TEMP:  46; 6HR MAX TEMP:  50; 6HR PCP: TRACE;

GROSSE ILE     PTCLDY    45  36  70 W3        30.05R
HILLSDALE      CLOUDY    41  40  95 W3        30.08R
HOWELL         MOCLDY    43  35  74 W7        30.05R

CITY           SKY/WX    TMP DP  RH WIND       PRES   REMARKS
JACKSON        CLOUDY    42  36  79 W6        30.07R
6HR MIN TEMP:  41; 6HR MAX TEMP:  48; 6HR PCP:  0.01;

LAMBERTVILLE   CLOUDY    45  39  81 W3        30.08R
LANSING        CLOUDY    45  36  70 W8        30.07R
6HR MIN TEMP:  43; 6HR MAX TEMP:  47;

LAPEER         CLOUDY    45  35  67 W6        30.03R
MASON          CLOUDY    43  36  76 W5        30.07R
MONROE         PTCLDY    41  36  81 W5        30.06R
MT. CLEMENS    PTCLDY    46  35  67 W8        30.01R
6HR MIN TEMP:  46; 6HR MAX TEMP:  52;

PONTIAC        MOCLDY    44  34  67 W8        30.04R
6HR MIN TEMP:  44; 6HR MAX TEMP:  50; 6HR PCP: TRACE;

PORT HOPE        N/A     47  38  71 NW12G21   29.99R
6HR MIN TEMP:  46; 6HR MAX TEMP:  50; 6HR PCP:  0.01;

PORT HURON     PTCLDY    43  36  75 W3        30.02R
TRI CITIES     PTCLDY    46  34  62 NW13      30.05R
6HR MIN TEMP:  46; 6HR MAX TEMP:  51;

TROY           CLOUDY    48  33  54 W7        30.06R
SAGINAW HB     CLOUDY    46  34  61 NW9       30.04R
$$
MIZ043>046-050>051-056>058-064>065-071>073-077>080-300100-
SOUTHWEST LOWER MICHIGAN

CITY           SKY/WX    TMP DP  RH WIND       PRES   REMARKS
BATTLE CREEK   CLOUDY    44  37  76 W7        30.09R
6HR MIN TEMP:  43; 6HR MAX TEMP:  47; 6HR PCP:  0.01;

BENTON HARBOR  CLOUDY    46  32  58 NW6       30.11R
6HR MIN TEMP:  45; 6HR MAX TEMP:  46; 6HR PCP: TRACE;

BIG RAPIDS     MOCLDY    41  39  91 NW3       30.07R
6HR MIN TEMP:  41; 6HR MAX TEMP:  47;

COLDWATER      CLOUDY    44  40  86 W6        30.10R
6HR MIN TEMP:  43; 6HR MAX TEMP:  46;

FREMONT        CLOUDY    42  35  76 NW3       30.08S
HOLLAND        CLOUDY    48  37  65 VRB6      30.10R
6HR MIN TEMP:  47; 6HR MAX TEMP:  49; 6HR PCP: TRACE;

GRAND RAPIDS   MOCLDY    44  36  73 NW8       30.09R
6HR MIN TEMP:  44; 6HR MAX TEMP:  48; 6HR PCP: TRACE;

IONIA          CLOUDY    45  37  72 NW9       30.07R
KALAMAZOO      CLOUDY    45  37  73 W5        30.10R
6HR MIN TEMP:  44; 6HR MAX TEMP:  46; 6HR PCP: TRACE;

LUDINGTON      CLOUDY    42  38  87 CALM      30.09R
6HR MIN TEMP:  42; 6HR MAX TEMP:  49; 6HR PCP:  0.01;

MARSHALL       CLOUDY    41  38  89 W6        30.08R
MOUNT PLEASANT CLEAR     42  35  76 CALM      30.06R
6HR MIN TEMP:  42; 6HR MAX TEMP:  51;

MUSKEGON       CLOUDY    46  36  68 N5        30.10R
6HR MIN TEMP:  46; 6HR MAX TEMP:  48; 6HR PCP: TRACE;

SOUTH HAVEN    CLOUDY    48  37  64 NW10      30.10S
$$
MIZ016>042-300100-
NORTHERN LOWER MICHIGAN

CITY           SKY/WX    TMP DP  RH WIND       PRES   REMARKS
ALPENA         MOCLDY    43  34  70 NW12      30.01R
6HR MIN TEMP:  42; 6HR MAX TEMP:  49; 6HR PCP: TRACE;

BEAVER ISLAND  CLOUDY    42  34  74 NW10      30.06R
6HR MIN TEMP:  42; 6HR MAX TEMP:  47;

BELLAIRE       CLOUDY    44  35  71 N3        30.06R
6HR MIN TEMP:  43; 6HR MAX TEMP:  47;

CADILLAC       MOCLDY    37  35  90 NW6       30.05R WCI  33
CHARLEVOIX     CLOUDY    42  34  73 NW13      30.08R
6HR MIN TEMP:  42; 6HR MAX TEMP:  45;

FRANKFORT      CLOUDY    45  38  76 N5        30.08R
GAYLORD        CLOUDY    38  36  92 NW5       30.03R WCI  34
6HR MIN TEMP:  38; 6HR MAX TEMP:  42; 6HR PCP:  0.04;

GRAYLING       CLEAR     38  35  89 NW5       30.04R WCI  34
6HR MIN TEMP:  38; 6HR MAX TEMP:  47;

HARBOR SPRINGS CLOUDY    41  33  73 W5        30.04R
HOUGHTON LAKE  LGT RAIN  40  37  89 NW8       30.04R WCI  34
6HR MIN TEMP:  39; 6HR MAX TEMP:  48; 6HR PCP: TRACE;

MANISTEE       CLOUDY    43  36  75 CALM      30.09R
OSCODA         CLEAR     40  35  81 NW6       30.01R
PELLSTON       CLOUDY    42  34  73 NW12      30.04R
                                      6HR PCP: TRACE;

ROGERS CITY    CLOUDY    43  36  75 NW9G17    30.02R
TRAVERSE CITY  CLOUDY    44  37  76 N7        30.06R
6HR MIN TEMP:  43; 6HR MAX TEMP:  48; 6HR PCP:  0.01;

$$
MIZ007>008-015-300100-
EASTERN UPPER MICHIGAN

CITY           SKY/WX    TMP DP  RH WIND       PRES   REMARKS
KINROSS        CLOUDY    37  36  93 W9        30.02R WCI  31
6HR MIN TEMP:  37; 6HR MAX TEMP:  43;

MACKINAC ISLAN PTCLDY    38  33  80 NW12      30.03R WCI  31
6HR MIN TEMP:  38; 6HR MAX TEMP:  47;

NEWBERRY       MOCLDY    35  32  90 W6        30.04R WCI  30
S. S. MARIE    CLOUDY    40  31  70 NW12      30.00R WCI  33
6HR MIN TEMP:  39; 6HR MAX TEMP:  43; 6HR PCP: TRACE;

MUNISING         N/A     42  36  79 N9        30.06R
6HR MIN TEMP:  42; 6HR MAX TEMP:  44; 6HR PCP:  0.01;

$$
MIZ004>006-011>014-085-300100-
CENTRAL UPPER MICHIGAN

CITY           SKY/WX    TMP DP  RH WIND       PRES   REMARKS
MANISTIQUE     PTCLDY    36  33  90 N3        30.06S
ESCANABA       CLOUDY    43  34  70 CALM      30.06S
6HR MIN TEMP:  43; 6HR MAX TEMP:  48;

MENOMINEE      CLOUDY    45  32  61 CALM      30.06S
6HR MIN TEMP:  45; 6HR MAX TEMP:  48;

SAWYER-GWINN   CLOUDY    39  34  81 W3        30.05R
$$
MIZ001>003-009>011-084-300100-
WESTERN UPPER MICHIGAN

CITY           SKY/WX    TMP DP  RH WIND       PRES   REMARKS
IRON MOUNTAIN  CLEAR     39  31  72 NW3       30.05R
6HR MIN TEMP:  39; 6HR MAX TEMP:  47; 6HR PCP: TRACE;

HOUGHTON       CLOUDY    40  31  70 MISG      30.03S
6HR MIN TEMP:  40; 6HR MAX TEMP:  41;

COPPER HARBOR    N/A     41  33  73 CALM      30.04R
6HR MIN TEMP:  40; 6HR MAX TEMP:  43;

IRONWOOD       CLOUDY    39  34  81 W9        30.04R WCI  33
6HR MIN TEMP:  39; 6HR MAX TEMP:  43;

$$

ABBREVIATIONS USED IN REMARKS
   TC - TEMPERATURE IN CELSIUS
  WCI - WIND CHILL INDEX
   HX - HEAT INDEX
  VSB - VISIBILITY




USA.gov is the U.S. government's official web portal to all federal, state and local government web resources and services.